Regional Weather Roundup
Issued by NWS

Home | Current Version | Previous Version | Text Only | Print | Product List | Glossary On
Versions: 1 2 3 4 5 6 7 8 9 10 11 12 13 14 15 16 17 18 19 20 21 22 23 24 25 26 27 28 29 30 31 32 33 34 35 36 37 38 39 40 41 42 43 44 45 46 47 48 49 50
639
ASUS45 KSLC 250910
RWRUT

UTAH REGIONAL WEATHER ROUNDUP
NATIONAL WEATHER SERVICE SALT LAKE CITY UT
300 AM MDT SAT MAR 25 2017

UTZ001>011-023>025-251000-

NORTHERN UTAH

CITY           SKY/WX    TMP DP  RH WIND       PRES   REMARKS
BRIGHAM CITY     N/A     48  38  66 N7        30.03F
HILL AFB       CLOUDY    48  33  56 E7        30.02F
LOGAN          CLOUDY    49  37  63 CALM      30.04F
OGDEN          CLOUDY    47  38  71 E3        30.01F
SALT LAKE CITY CLOUDY    54  33  45 SW7       30.01R
WENDOVER       CLOUDY    51  36  56 W3        30.03S
HEBER CITY     MOCLDY    37  28  70 CALM      30.04F

$$

UTZ011>015-024>027-251000-

CENTRAL/NORTHEAST UTAH

CITY           SKY/WX    TMP DP  RH WIND       PRES   REMARKS
PROVO AIRPORT  CLOUDY    46  35  65 SE3       30.05F
MOAB/CANYONLAN CLEAR     43  24  47 W3        30.06F
DELTA          CLOUDY    46  30  53 S12G17    30.04S
PRICE          PTCLDY    37  32  82 NE7       30.09F WCI  32
ROOSEVELT      CLEAR     36  32  87 SW5       30.11F WCI  32
VERNAL         CLOUDY    36  31  82 CALM      30.08F

$$

UTZ013>016-019>022-027-251000-

SOUTHERN UTAH

CITY           SKY/WX    TMP DP  RH WIND       PRES   REMARKS
BRYCE CANYON   PTCLDY    29  25  85 SW5       30.17F WCI  24
CEDAR CITY     MOCLDY    43  28  55 SW8       30.09S
MILFORD        CLOUDY    43  27  53 SW12      30.06F
ST GEORGE      PTSUNNY   52  35  52 SE3       30.05F
HANKSVILLE     MOCLDY    43  32  65 CALM      30.08F
KANAB          CLEAR     36  34  93 NE1       30.17
BLANDING       CLEAR     33  20  59 N5        30.22S WCI  28

$$

REGIONAL REPORTS     COLORADO/ARIZONA

CITY           SKY/WX    TMP DP  RH WIND       PRES   REMARKS
CRAIG, CO      CLOUDY    26  21  81 CALM      30.15S
GRAND JUNCTION CLEAR     43  30  60 E13       30.11S
RIFLE, CO      CLOUDY    34  26  72 CALM      30.16S
MONTROSE, CO   CLOUDY    38  27  64 SE10      30.19S WCI  31
CORTEZ, CO     CLOUDY    31  27  85 NE7       30.17F WCI  24
COLORADO CITY    N/A     37  34  87 CALM      30.15F
PAGE, AZ       PTCLDY    49  31  49 NW3       30.08F
GRAND CANYON   CLEAR     30  28  92 NE5       30.20F WCI  25
KINGMAN, AZ    PTCLDY    51  18  27 SE13      30.08F
FLAGSTAFF, AZ  PTCLDY    29  27  92 SW3       30.20F

$$

REGIONAL REPORTS    NEVADA/IDAHO/WYOMING

CITY           SKY/WX    TMP DP  RH WIND       PRES   REMARKS
LAS VEGAS, NV  CLOUDY    66  28  24 S7        29.97F
ELY, NY        CLOUDY    42  33  70 N12       30.08R
ELKO, NV       CLOUDY    41  37  86 S7        30.07F
POCATELLO, ID  LGT RAIN  43  42  97 S8        30.06F
BURLEY, ID     CLOUDY    42  38  85 SW6       30.05F
FORT BRIDGER,    N/A     40  29  63 CALM      30.09F
EVANSTON, WY   CLOUDY    37  20  50 SW9       30.06F WCI  30
ROCK SPRINGS,  CLOUDY    40  30  67 S3        30.06S
KEMMERER, WY     N/A     36  27  69 W3        30.07F

$$




USA.gov is the U.S. government's official web portal to all federal, state and local government web resources and services.